THOR ABLESTAR DEB, 5265

Orbit data source: Space-Track

THOR ABLESTAR DEB, 5265 is space debris in LEO originally from a launch on Fri, 13 Aug 1965 UTC launched from the Air Force Western Test Range (AFWTR). Debris objects in space refer to the collection of defunct objects orbiting the Earth. Examples of debris include non-operational satellites, rocket bodies, and fragments generated from explosions, collisions, or faulty payload assembly.

Loading next visibility...
Identifier
5265, 1965-065Q
Orbit
LEO
Last TLE update
17 hours ago
Origin
Manufacturer
Unknown
Mission
Spacecraft
Bus & Motor
Unknown
Mass
Unknown
Launch date (UTC)
1965-08-13 (60 years ago)
Launch vehicle
Unknown
Launch site
Air Force Western Test Range (AFWTR)
Object type
Payload
Rocket body
Debris
Shape & HBR
Unknown
Radar Cross Section
0.070 m², Small (<0.1 m²)

Expand to show TLE details & history

TLE from 17 hours ago
0 THOR ABLESTAR DEB
1 05265U 65065Q   25128.49722205  .00000258  00000-0  43882-3 0  9992
2 05265  90.1429 300.1868 0043890  69.1954 355.3523 13.42342386918324
Epoch: 2025-05-08T11:55Z
Definitive object data (Epoch: 2025-05-08T11:55:59.985Z)
Latitude
64.58903°
Longitude
-105.67926°
Altitude
1,079.067 km
Speed
7.335 km/s
True Right ascension
19h 59m 33s
True Declination
64° 27' 40"
Sunlit
Object was in daylight at TLE epoch
Visualization TLE readout
Latitude
-60.79575°
Longitude
74.3757°
Altitude
1,156.675 km
Speed
7.258 km/s
Apparent Right ascension
03h 50m 15s
Apparent Declination
-63° 13' 36"
Sunlit
Object is in daylight
Visualization observer readout
Local Sidereal Time
13:03:06
Azimuth
212.607° SW
Elevation
-56.148°
Doppler factor
1
Orbital elements
Apogee altitude
1,130.438 km
Perigee altitude
1,064.816 km
Semi-major axis
7,475.764 km
Eccentricity
0.004389
Inclination
90.1429°
RAAN
300.1868°
Arg. of periapsis
69.1954°
True anomaly
355.31132°
Mean anomaly
355.3523°
Eccentric anomaly
355.33183°
Mean motion
3.35784 °/min
BSTAR
0.00043882
Orbital period
107.21 mins
Loading maneuver chart data...
Loading SW <> Apogee altitude chart data...
Loading historical data...
Loading historical data...
Loading historical data...
Loading historical data...
Loading historical data...
Loading historical data...
Loading historical data...

THOR ABLESTAR DEB Visibility forecast

Observer location: undefined°, undefined°

Span
Click to sort rows by Start time (UTC) header in descending order
Start Az.
Max El. time (UTC)
Max El. Az.
Max El.
End time (UTC)
End Az.
11 mins2025-05-09 10:58:31.209Z145.533° SSE2025-05-09 11:04:31.209Z77.567° E33.035°2025-05-09 11:09:31.209Z16.322° NNE
9 mins2025-05-09 12:47:31.209Z225.909° WSW2025-05-09 12:51:31.209Z275.895° WNW27.455°2025-05-09 12:56:31.209Z333.242° NNW
7 mins2025-05-09 22:14:31.209Z48.39° ENE2025-05-09 22:17:31.209Z79.351° E17.403°2025-05-09 22:21:31.209Z117.63° SE
12 mins2025-05-09 23:59:31.209Z356.241° N2025-05-10 00:05:31.209Z249.134° W42.854°2025-05-10 00:11:31.209Z194.248° SSW
|